Waarnemingen

Advertentie
Mijn weer
Ueckermünde, Duitsland (10193): temperatuur & dauwpunt: 20.09.2018 17:00:00 - 26.09.2018 17:00:00 (CEST)Ueckermünde, Duitsland (10193): temperatuur 5cm & temperatuur -5cm: 20.09.2018 17:00:00 - 26.09.2018 17:00:00 (CEST)Ueckermünde, Duitsland (10193): temperatuur -20cm & temperatuur -100cm: 20.09.2018 17:00:00 - 26.09.2018 17:00:00 (CEST)Ueckermünde, Duitsland (10193): windsnelheid & windstoten: 20.09.2018 17:00:00 - 26.09.2018 17:00:00 (CEST)Ueckermünde, Duitsland (10193): windrichting: 20.09.2018 17:00:00 - 26.09.2018 17:00:00 (CEST)Ueckermünde, Duitsland (10193): luchtdruk: 20.09.2018 17:00:00 - 26.09.2018 17:00:00 (CEST)Ueckermünde, Duitsland (10193): zicht: 20.09.2018 17:00:00 - 26.09.2018 17:00:00 (CEST)Ueckermünde, Duitsland (10193): Zonneschijnduur: 20.09.2018 17:00:00 - 26.09.2018 17:00:00 (CEST)Ueckermünde, Duitsland (10193): neerslag: 20.09.2018 17:00:00 - 26.09.2018 17:00:00 (CEST)
Datum & Tijd tt [°C] td [°C] tt 5cm [°C] tt -5cm [°C] tt -20cm [°C] tt -100cm [°C] ff [km/u] ff [kn] fx [km/u] fx [kn] dd ppp [hPa] vv [km] sd [min] rr [mm]
26.09.2018 17:00:00 16,0 4,0 15,9 12,9 12,0 15,7 26 14 49 26 ZW 1024,6 49 0 0,0
26.09.2018 16:00:00 16,1 4,2 16,5 13,3 11,8 15,8 31 17 59 32 ZW 1025,4 32 3 0,0
26.09.2018 15:00:00 15,8 5,0 16,6 13,2 11,5 15,8 26 14 51 28 ZW 1026,3 31 0 0,0
26.09.2018 14:00:00 14,8 4,6 15,4 13,2 11,1 15,8 32 18 54 29 ZW 1027,6 30 32 0,0
26.09.2018 13:00:00 14,4 4,6 15,7 12,4 10,7 15,8 34 18 54 29 ZW 1028,8 12 15 0,0
26.09.2018 12:00:00 13,7 4,9 16,1 11,0 10,5 15,8 26 14 43 23 ZW 1029,7 10 13 0,0
26.09.2018 11:00:00 12,2 4,5 12,6 10,0 10,3 15,9 23 13 36 19 ZW 1030,6 23 0 0,0
26.09.2018 10:00:00 11,0 5,2 11,1 9,2 10,1 15,9 15 8 26 14 ZZW 1030,8 26 0 0,0
26.09.2018 09:00:00 9,4 5,6 9,7 7,9 10,1 15,9 15 8 22 12 ZZW 1031,6 22 0 0,0
26.09.2018 08:00:00 7,6 4,9 7,3 6,7 10,1 15,9 16 8 21 11 Z 1032,1 43 0 0,0
26.09.2018 07:00:00 6,7 4,3 6,1 6,0 10,2 15,9 14 7 21 11 ZZW 1032,7 70 0 0,0
26.09.2018 06:00:00 5,7 3,7 5,3 5,7 10,4 16,0 14 8 21 12 Z 1033,1 70 0 0,0
26.09.2018 05:00:00 4,8 3,1 4,4 5,2 10,6 16,0 13 7 18 10 Z 1034,0 70 0 0,0
26.09.2018 04:00:00 4,2 2,5 3,2 5,1 10,8 16,0 13 7 18 10 ZZW 1034,4 70 0 0,0
26.09.2018 03:00:00 4,1 2,4 3,0 5,2 11,1 16,0 12 6 16 9 ZZW 1035,0 70 0 0,0
26.09.2018 02:00:00 4,2 2,5 3,3 5,5 11,4 16,0 12 7 16 8 ZZW 1035,6 70 0 0,0
26.09.2018 01:00:00 4,3 2,5 3,2 5,8 11,8 16,0 8 5 15 8 ZZW 1035,9 70 0 0,0
26.09.2018 00:00:00 3,6 2,0 0,9 6,2 12,2 16,1 7 4 12 7 ZZW 1036,1 70 0 0,0
25.09.2018 23:00:00 5,0 2,5 2,3 6,7 12,6 16,1 7 4 10 6 ZZW 1036,7 70 0 0,0
25.09.2018 22:00:00 5,5 2,4 2,1 7,4 13,0 16,1 5 3 9 5 ZZW 1036,6 70 0 0,0
25.09.2018 21:00:00 6,3 2,6 3,0 8,2 13,4 16,1 5 3 9 5 ZZW 1036,5 70 0 0,0
25.09.2018 20:00:00 7,9 2,3 4,0 9,6 13,7 16,2 7 4 14 8 ZW 1036,5 70 0 0,0
25.09.2018 19:00:00 10,1 1,6 7,2 11,3 13,9 16,2 7 4 24 13 W 1036,3 70 41 0,0
25.09.2018 18:00:00 13,0 3,8 12,3 13,3 13,9 16,2 10 5 25 13 W 1036,1 66 32 0,0
25.09.2018 17:00:00 13,1 3,8 13,1 15,3 13,7 16,2 14 7 26 14 NW 1035,9 28 58 0,0
25.09.2018 16:00:00 13,7 2,8 14,9 15,8 13,4 16,2 13 7 28 15 WNW 1035,9 15 58 0,0
25.09.2018 15:00:00 13,7 2,9 15,8 16,0 13,1 16,3 14 8 29 16 NW 1036,1 65 46 0,0
25.09.2018 14:00:00 13,9 4,5 16,1 16,8 12,5 16,3 16 9 31 17 NW 1035,9 16 59 0,0
25.09.2018 13:00:00 13,6 3,8 16,0 16,4 11,9 16,3 14 8 31 17 NW 1035,5 9 58 0,0
25.09.2018 12:00:00 12,7 6,1 16,0 15,1 11,3 16,3 15 8 29 16 WNW 1035,1 8 60 0,0
25.09.2018 11:00:00 11,6 7,2 14,4 13,0 10,9 16,3 16 9 28 15 WNW 1034,4 2,8 60 0,0
25.09.2018 10:00:00 9,4 7,2 11,2 10,4 10,7 16,4 13 7 26 14 W 1033,9 7 60 0,0
25.09.2018 09:00:00 7,6 6,1 8,3 8,0 10,7 16,4 16 9 24 13 WZW 1033,3 8 60 0,0
25.09.2018 08:00:00 6,7 5,5 5,6 6,8 10,9 16,4 15 8 31 17 WZW 1032,5 31 10 0,1
25.09.2018 07:00:00 6,1 4,5 4,9 6,3 11,0 16,4 11 6 22 12 W 1031,9 70 0 0,0
25.09.2018 06:00:00 5,6 4,3 4,4 6,5 11,2 16,4 14 7 26 14 WZW 1031,1 70 0 0,0
25.09.2018 05:00:00 7,7 4,0 5,7 7,1 11,3 16,5 18 10 40 22 W 1030,4 70 0 0,0
25.09.2018 04:00:00 7,5 4,4 5,7 6,9 11,5 16,5 6 4 38 20 W 1030,0 70 0 0,5
25.09.2018 03:00:00 5,6 3,5 3,8 6,1 11,8 16,5 11 6 28 15 W 1029,1 70 0 0,0
25.09.2018 02:00:00 5,6 4,1 4,0 6,6 12,1 16,5 13 7 26 14 WZW 1028,8 70 0 0,0
25.09.2018 01:00:00 7,0 4,1 5,2 7,2 12,3 16,5 15 8 33 18 W 1028,1 70 0 0,1
25.09.2018 00:00:00 6,5 5,0 5,5 7,2 12,7 16,6 14 7 34 18 W 1028,0 57 0 2,0
24.09.2018 23:00:00 6,8 5,3 5,7 7,1 13,0 16,6 5 3 16 9 N 1027,4 4,1 0 1,4
24.09.2018 22:00:00 6,3 4,4 4,7 8,7 13,2 16,6 10 5 39 21 WZW 1026,2 70 0 0,8
24.09.2018 21:00:00 8,0 4,8 6,7 9,2 13,4 16,6 10 5 34 19 NW 1026,0 70 0 0,8
24.09.2018 20:00:00 7,3 5,5 6,3 9,6 13,6 16,6 9 5 30 16 ZW 1024,9 70 0 1,6
24.09.2018 19:00:00 9,4 4,7 8,5 11,1 13,8 16,7 6 3 32 18 WNW 1024,4 70 9 0,1
24.09.2018 18:00:00 10,4 2,5 9,9 11,6 13,8 16,7 15 8 50 27 WNW 1023,7 70 4 0,0
24.09.2018 17:00:00 12,1 4,0 12,2 13,7 13,7 16,7 18 10 34 19 WNW 1023,0 23 42 0,0
24.09.2018 16:00:00 11,7 6,1 12,8 13,8 13,5 16,7 15 8 26 14 W 1022,7 28 37 0,0
24.09.2018 15:00:00 10,2 5,9 9,2 13,5 13,3 16,7 17 9 55 30 W 1022,2 70 25 0,3
24.09.2018 14:00:00 13,0 7,0 16,0 14,6 13,0 16,7 27 15 47 26 WNW 1021,2 8 60 0,0
24.09.2018 13:00:00 11,0 6,5 12,3 12,5 12,9 16,8 21 12 43 23 W 1020,5 15 17 0,0
24.09.2018 12:00:00 9,6 5,7 9,7 12,0 12,7 16,8 22 12 43 23 W 1019,7 39 9 0,2
24.09.2018 11:00:00 9,5 6,4 8,4 12,1 12,6 16,8 23 13 52 28 WNW 1018,5 32 40 0,4
24.09.2018 10:00:00 10,8 6,5 10,4 10,2 12,6 16,8 24 13 45 24 W 1017,4 21 24 0,4
24.09.2018 09:00:00 9,1 6,1 7,9 9,4 12,7 16,8 18 10 35 19 W 1016,5 12 23 0,4
24.09.2018 08:00:00 7,9 5,6 7,6 7,8 12,9 16,9 18 10 27 14 WZW 1015,5 40 4 0,0
24.09.2018 07:00:00 7,5 5,0 6,2 8,0 13,1 16,9 18 10 35 19 WZW 1014,9 58 0 0,0
24.09.2018 06:00:00 8,7 5,4 7,1 8,4 13,3 16,9 21 11 42 23 W 1014,2 59 0 0,0
24.09.2018 05:00:00 8,9 5,9 7,5 8,7 13,5 16,9 22 12 39 21 W 1013,4 64 0 0,0
24.09.2018 04:00:00 9,2 6,4 7,7 9,0 13,7 16,9 19 10 35 19 W 1012,6 68 0 0,0
24.09.2018 03:00:00 9,1 6,6 7,7 9,5 14,0 16,9 17 9 32 18 W 1011,8 70 0 0,0
24.09.2018 02:00:00 9,6 6,9 8,7 10,2 14,2 17,0 16 9 33 18 W 1010,8 70 0 0,0
24.09.2018 01:00:00 9,9 6,9 8,9 10,5 14,3 17,0 16 9 37 20 W 1010,0 70 0 0,0
24.09.2018 00:00:00 10,0 7,2 9,1 11,0 14,5 17,0 13 7 22 12 W 1009,3 70 0 0,0
23.09.2018 23:00:00 9,9 7,2 8,7 11,5 14,7 17,0 9 5 19 11 W 1008,6 70 0 0,0
23.09.2018 22:00:00 10,7 7,5 9,7 12,0 14,8 17,0 13 7 33 18 N 1008,1 40 0 0,1
23.09.2018 21:00:00 12,3 8,6 11,8 12,4 15,0 17,1 9 5 26 14 NW 1007,1 48 0 0,0
23.09.2018 20:00:00 11,6 8,1 10,7 12,8 15,1 17,1 6 4 13 7 WNW 1006,8 50 0 0,0
23.09.2018 19:00:00 11,4 7,6 10,2 13,5 15,2 17,1 4 2 9 5 W 1007,1 64 0 0,0
23.09.2018 18:00:00 12,2 7,1 11,5 14,3 15,2 17,1 3 2 9 5 W 1007,6 70 0 0,0
23.09.2018 17:00:00 13,2 6,7 13,2 15,3 15,1 17,1 6 3 16 8 W 1008,2 70 0 0,0
23.09.2018 16:00:00 13,8 6,5 14,4 16,1 15,0 17,1 9 5 14 8 WZW 1009,8 66 0 0,0
23.09.2018 15:00:00 13,9 6,6 14,5 16,6 14,7 17,2 8 4 21 11 WZW 1010,0 61 0 0,0
23.09.2018 14:00:00 14,2 6,4 16,1 17,3 14,3 17,2 12 6 26 14 WZW 1011,3 40 4 0,0
23.09.2018 13:00:00 13,6 6,9 15,5 16,6 13,9 17,2 17 9 27 15 WZW 1012,1 28 23 0,0
23.09.2018 12:00:00 13,5 8,7 15,8 15,5 13,5 17,2 15 8 28 15 WZW 1012,6 19 60 0,0
23.09.2018 11:00:00 12,2 8,3 15,1 13,8 13,3 17,2 18 10 31 17 WZW 1012,9 13 57 0,0
23.09.2018 10:00:00 11,0 8,3 13,0 11,8 13,2 17,2 21 11 34 19 WZW 1013,3 15 60 0,0
23.09.2018 09:00:00 9,6 7,8 10,8 10,1 13,3 17,3 19 10 31 17 ZW 1013,0 12 60 0,0
23.09.2018 08:00:00 8,3 7,3 7,6 8,5 13,5 17,3 16 8 26 14 ZW 1013,0 14 22 0,0
23.09.2018 07:00:00 8,0 7,2 6,9 8,4 13,7 17,3 15 8 24 13 ZW 1013,0 30 0 0,0
23.09.2018 06:00:00 8,2 7,4 6,9 8,7 13,9 17,3 16 8 22 12 ZW 1013,3 40 0 0,0
23.09.2018 05:00:00 8,6 7,5 7,2 9,0 14,2 17,3 14 8 24 13 ZW 1013,6 50 0 0,0
23.09.2018 04:00:00 9,0 7,7 7,6 9,2 14,4 17,3 14 8 23 12 WZW 1013,8 64 0 0,0
23.09.2018 03:00:00 9,4 7,8 8,0 9,6 14,6 17,3 15 8 24 13 ZW 1013,9 67 0 0,0
23.09.2018 02:00:00 10,0 7,8 8,6 10,1 14,9 17,4 15 8 27 15 ZW 1014,1 70 0 0,0
23.09.2018 01:00:00 10,5 7,5 9,2 10,7 15,1 17,4 15 8 26 14 ZW 1014,1 70 0 0,0
23.09.2018 00:00:00 11,2 8,1 10,5 11,2 15,3 17,4 16 9 28 15 ZW 1014,3 70 0 0,0
22.09.2018 23:00:00 11,3 7,9 10,3 11,2 15,5 17,4 19 10 29 16 ZW 1014,5 70 0 0,0
22.09.2018 22:00:00 11,1 8,0 10,0 11,6 15,8 17,4 16 8 35 19 ZW 1014,4 70 0 0,0
22.09.2018 21:00:00 11,2 7,9 9,8 11,9 16,0 17,4 14 8 27 15 ZW 1014,4 70 0 0,0
22.09.2018 20:00:00 11,1 7,9 9,2 12,9 16,3 17,4 22 12 35 19 WZW 1014,4 70 0 0,4
22.09.2018 19:00:00 12,0 7,3 11,3 13,7 16,4 17,4 19 11 40 22 W 1014,7 70 0 0,0
22.09.2018 18:00:00 11,9 8,3 11,5 15,1 16,5 17,5 28 15 48 26 WNW 1014,8 19 1 0,0
22.09.2018 17:00:00 16,3 6,1 16,1 16,3 16,4 17,5 29 16 52 28 WZW 1014,0 62 0 0,0
22.09.2018 16:00:00 17,3 6,6 18,3 17,2 16,2 17,5 24 13 49 26 WZW 1014,0 20 30 0,0
22.09.2018 15:00:00 16,2 6,5 17,0 17,6 16,0 17,5 23 13 50 27 WZW 1014,3 17 38 0,0
22.09.2018 14:00:00 16,5 6,2 19,1 17,0 15,8 17,5 29 16 44 24 WZW 1014,7 23 21 0,0
22.09.2018 13:00:00 15,4 8,1 17,0 17,9 15,4 17,5 26 14 43 23 ZW 1014,8 31 44 0,0
22.09.2018 12:00:00 14,2 8,0 15,3 16,9 15,1 17,5 27 14 41 22 WZW 1015,1 26 51 0,0
22.09.2018 11:00:00 13,7 8,3 16,6 15,2 14,9 17,5 21 12 37 20 WZW 1014,9 14 58 0,0
22.09.2018 10:00:00 12,6 8,0 14,1 13,1 14,8 17,5 26 14 38 21 WZW 1014,4 17 56 0,0
22.09.2018 09:00:00 11,4 8,1 12,5 11,5 14,9 17,5 19 11 33 18 WZW 1013,5 15 60 0,0
22.09.2018 08:00:00 10,1 7,3 9,4 10,0 15,2 17,5 17 9 31 17 ZW 1013,1 25 12 0,0
22.09.2018 07:00:00 9,4 6,6 8,4 9,3 15,5 17,5 20 11 36 20 ZW 1012,3 70 0 0,0
22.09.2018 06:00:00 9,2 6,1 7,8 9,4 15,8 17,5 16 9 31 17 ZW 1011,8 70 0 0,0
22.09.2018 05:00:00 9,6 6,1 8,2 9,8 16,2 17,5 19 10 36 19 ZW 1011,4 70 0 0,0
22.09.2018 04:00:00 9,9 6,0 8,1 10,2 16,6 17,5 18 10 27 15 ZW 1010,9 70 0 0,0
22.09.2018 03:00:00 10,4 6,5 8,2 10,8 17,0 17,5 18 10 32 17 ZW 1010,1 70 0 0,0
22.09.2018 02:00:00 11,1 7,4 9,0 11,5 17,4 17,5 20 11 29 15 ZW 1009,7 70 0 0,0
22.09.2018 01:00:00 11,5 8,7 9,4 12,3 17,7 17,5 15 8 27 15 ZW 1009,5 70 0 0,0
22.09.2018 00:00:00 11,9 10,8 10,6 13,0 18,1 17,5 13 7 25 13 ZW 1009,1 54 0 0,0
21.09.2018 23:00:00 12,6 10,8 11,2 13,9 18,5 17,5 15 8 26 14 WZW 1008,6 62 0 0,0
21.09.2018 22:00:00 12,9 11,4 11,8 14,6 18,9 17,5 16 9 31 17 WZW 1007,6 64 0 0,0
21.09.2018 21:00:00 13,1 12,1 12,5 15,3 19,3 17,5 16 9 24 13 ZW 1006,7 58 0 0,1
21.09.2018 20:00:00 12,9 12,4 12,7 15,8 19,7 17,5 10 5 30 16 ZZW 1005,1 20 0 0,7
21.09.2018 19:00:00 13,1 12,0 12,7 16,6 20,1 17,5 16 8 31 17 WZW 1005,8 22 0 1,4
21.09.2018 18:00:00 12,9 12,3 12,6 19,0 20,2 17,5 20 11 62 33 W 1004,9 3,9 0 4,2
21.09.2018 17:00:00 14,7 11,9 14,0 23,3 20,0 17,5 48 26 77 42 WNW 1003,6 5 0 0,1
21.09.2018 16:00:00 28,1 12,4 28,2 24,4 19,7 17,5 36 19 61 33 ZZW 1000,2 14 16 0,0
21.09.2018 15:00:00 29,3 13,4 31,2 24,3 19,4 17,5 31 17 60 33 ZZW 1000,8 18 26 0,0
21.09.2018 14:00:00 28,0 13,3 28,7 23,9 19,0 17,5 31 17 51 28 Z 1002,0 29 24 0,0
21.09.2018 13:00:00 27,8 13,5 29,2 23,6 18,6 17,5 25 13 48 26 Z 1003,0 21 53 0,0
21.09.2018 12:00:00 26,5 14,6 28,6 22,0 18,2 17,5 24 13 46 25 Z 1004,2 19 59 0,0
21.09.2018 11:00:00 24,7 14,7 27,2 20,0 18,1 17,5 23 12 36 19 Z 1005,4 23 57 0,0
21.09.2018 10:00:00 20,7 14,0 21,3 18,0 18,0 17,5 21 11 31 17 ZZO 1006,0 27 55 0,0
21.09.2018 09:00:00 18,3 12,9 18,2 16,8 18,1 17,5 15 8 26 14 Z 1007,0 25 55 0,0
21.09.2018 08:00:00 16,9 12,4 16,4 16,0 18,3 17,5 16 8 26 14 Z 1007,4 30 26 0,0
21.09.2018 07:00:00 15,1 11,8 13,5 15,9 18,4 17,5 10 6 18 10 Z 1008,1 28 0 0,0
21.09.2018 06:00:00 15,9 12,2 14,7 16,1 18,6 17,5 14 8 21 11 Z 1008,7 27 0 0,0
21.09.2018 05:00:00 15,6 12,4 14,5 16,2 18,7 17,4 13 7 21 11 Z 1009,4 29 0 0,0
21.09.2018 04:00:00 15,7 12,5 14,3 16,3 18,9 17,4 10 6 17 9 Z 1010,2 32 0 0,0
21.09.2018 03:00:00 15,5 12,5 13,6 16,5 19,2 17,4 9 5 18 10 Z 1010,9 31 0 0,0
21.09.2018 02:00:00 15,7 12,5 13,4 16,5 19,4 17,4 10 6 13 7 Z 1011,6 33 0 0,0
21.09.2018 01:00:00 15,5 12,6 10,6 17,0 19,7 17,4 9 5 11 6 Z 1012,2 35 0 0,0
21.09.2018 00:00:00 15,2 12,6 10,7 17,5 19,9 17,4 6 3 10 5 Z 1012,8 31 0 0,0
20.09.2018 23:00:00 16,4 12,9 11,7 18,2 20,2 17,4 8 4 9 5 Z 1013,1 44 0 0,0
20.09.2018 22:00:00 15,7 12,7 12,1 19,0 20,4 17,4 6 3 9 5 ZZO 1013,3 34 0 0,0
20.09.2018 21:00:00 17,0 13,3 12,9 20,0 20,6 17,4 4 2 6 3 ZZO 1013,6 37 0 0,0
20.09.2018 20:00:00 19,5 14,0 15,7 21,2 20,7 17,4 3 2 5 3 OZO 1013,8 39 0 0,0
20.09.2018 19:00:00 21,8 14,1 19,0 22,5 20,7 17,4 3 1 9 5 ZO 1014,0 50 0 0,0
20.09.2018 18:00:00 24,5 13,1 23,8 23,6 20,6 17,4 8 4 24 13 ZW 1014,6 55 1 0,0
20.09.2018 17:00:00 25,9 12,7 26,8 24,6 20,3 17,4 16 8 29 16 ZW 1014,8 57 38 0,0

tt = temperatuur
td = dauwpunt
tt 5cm = temperatuur 5cm
tt -5cm = temperatuur -5cm
tt -20cm = temperatuur -20cm
tt -100cm = temperatuur -100cm
ff = windsnelheid
fx = windstoten
dd = windrichting
ppp = luchtdruk
vv = zicht
sd = Zonneschijnduur
rr = neerslag

Weerstations in de omgeving